FW5161 Weather Reports


time (UTC)temp
C
wind
direction
speed
KPH
gust
KPH
rain 1hr
cm
rain 24hr
cm
rain mn
cm
humidity
%
barometer
mb
20260505070808 17 87 1.6 4.8 0.00 0.00 0.00 62 1008.5
20260505070537 18 87 1.6 4.8 0.00 0.00 0.00 61 1008.5
20260505070031 18 87 1.6 3.2 0.00 0.00 0.00 60 1008.5
20260505065304 18 87 1.6 4.8 0.00 0.00 0.00 60 1008.4
20260505064802 18 87 1.6 4.8 0.00 0.00 0.00 60 1008.3
20260505064302 18 87 0.0 4.8 0.00 0.00 0.00 60 1008.3
20260505063801 18 87 0.0 0.0 0.00 0.00 0.00 60 1008.3
20260505063304 18 87 0.0 0.0 0.00 0.00 0.00 60 1008.3
20260505062804 18 87 0.0 0.0 0.00 0.00 0.00 60 1008.3
20260505062301 18 87 0.0 1.6 0.00 0.00 0.00 59 1008.2
20260505061801 18 87 1.6 3.2 0.00 0.00 0.00 59 1008.2
20260505061542 18 87 3.2 3.2 0.00 0.00 0.00 59 1008.2
20260505060801 18 87 1.6 3.2 0.00 0.00 0.00 59 1008.2
20260505060301 18 87 1.6 3.2 0.00 0.00 0.00 57 1008.2
20260505055801 18 87 1.6 4.8 0.00 0.00 0.00 57 1008.2
20260505055301 19 87 1.6 4.8 0.00 0.00 0.00 57 1008.1
20260505055039 19 87 3.2 4.8 0.00 0.00 0.00 56 1008.1
20260505054301 18 87 3.2 4.8 0.00 0.00 0.00 55 1008.1
20260505053805 18 87 3.2 4.8 0.00 0.00 0.00 55 1008.2
20260505053307 19 87 3.2 4.8 0.00 0.00 0.00 54 1008.2
20260505053035 19 87 1.6 4.8 0.00 0.00 0.00 55 1008.1
20260505052300 19 87 1.6 8.0 0.00 0.00 0.00 55 1008.1
20260505052036 20 87 1.6 8.0 0.00 0.00 0.00 55 1008.0
20260505051301 20 87 1.6 3.2 0.00 0.00 0.00 53 1008.0
20260505050801 20 87 1.6 4.8 0.00 0.00 0.00 52 1008.1
20260505050526 20 87 3.2 4.8 0.00 0.00 0.00 52 1007.9
20260505041739 20 64 3.2 4.8 0.00 0.00 0.00 51 1007.7
20260505041244 20 64 1.6 4.8 0.00 0.00 0.00 52 1007.7
20260505040739 20 64 0.0 3.2 0.00 0.00 0.00 51 1007.7
20260505040234 20 64 1.6 4.8 0.00 0.00 0.00 52 1007.6
20260505035732 20 64 3.2 4.8 0.00 0.00 0.00 51 1007.6
20260505035230 20 64 3.2 4.8 0.00 0.00 0.00 50 1007.5
20260505034730 20 64 3.2 4.8 0.00 0.00 0.00 50 1007.4
20260505034230 21 64 3.2 4.8 0.00 0.00 0.00 51 1007.4
20260505033729 21 64 3.2 4.8 0.00 0.00 0.00 51 1007.4
20260505033229 21 58 3.2 4.8 0.00 0.00 0.00 50 1007.3
20260505032729 21 57 3.2 4.8 0.00 0.00 0.00 50 1007.3
20260505032229 21 57 3.2 4.8 0.00 0.00 0.00 49 1007.3
20260505031728 21 56 1.6 4.8 0.00 0.00 0.00 49 1007.3
20260505031229 22 56 0.0 4.8 0.00 0.00 0.00 48 1007.3
20260505030728 22 56 1.6 4.8 0.00 0.00 0.00 48 1007.2
20260505030237 22 53 3.2 4.8 0.00 0.00 0.00 47 1007.2
20260505025732 22 51 1.6 4.8 0.00 0.00 0.00 47 1007.2
20260505025231 23 339 1.6 3.2 0.00 0.00 0.00 46 1007.3
20260505024724 24 333 1.6 6.4 0.00 0.00 0.00 43 1007.2
20260505024225 24 332 1.6 6.4 0.00 0.00 0.00 43 1007.2
20260505023724 25 328 1.6 4.8 0.00 0.00 0.00 42 1007.2
20260505023225 25 328 3.2 4.8 0.00 0.00 0.00 42 1007.2
20260505022723 25 327 3.2 4.8 0.00 0.00 0.00 42 1007.3
20260505022222 25 328 3.2 4.8 0.00 0.00 0.00 39 1007.4
20260505021722 25 317 3.2 4.8 0.00 0.00 0.00 39 1007.4
20260505021454 25 316 3.2 6.4 0.00 0.00 0.00 38 1007.4
20260505020720 25 316 4.8 8.0 0.00 0.00 0.00 39 1007.4
20260505020452 26 312 3.2 8.0 0.00 0.00 0.00 36 1007.5
20260505015723 26 311 3.2 8.0 0.00 0.00 0.00 37 1007.5
20260505015220 26 276 4.8 12.9 0.00 0.00 0.00 37 1007.6
20260505014720 26 251 6.4 12.9 0.00 0.00 0.00 37 1007.6
20260505014221 26 332 4.8 14.5 0.00 0.00 0.00 36 1007.6
20260505013720 26 309 3.2 14.5 0.00 0.00 0.00 37 1007.7
20260505013221 26 326 4.8 12.9 0.00 0.00 0.00 40 1007.6
20260505012724 26 308 6.4 14.5 0.00 0.00 0.00 38 1007.7
20260505012217 26 341 6.4 14.5 0.00 0.00 0.00 40 1007.7
20260505011716 26 343 4.8 9.7 0.00 0.00 0.00 40 1007.7
20260505011216 26 301 4.8 16.1 0.00 0.00 0.00 35 1007.8
20260505010715 26 359 6.4 16.1 0.00 0.00 0.00 34 1007.8
20260505010216 26 299 6.4 14.5 0.00 0.00 0.00 34 1007.8
20260505005716 26 260 6.4 11.3 0.00 0.00 0.00 34 1007.9
20260505004714 27 318 6.4 16.1 0.00 0.00 0.00 34 1007.9
20260505004214 26 315 4.8 12.9 0.00 0.00 0.00 35 1008.0
20260505003714 26 316 6.4 12.9 0.00 0.00 0.00 39 1008.0
20260505003210 26 349 6.4 12.9 0.00 0.00 0.00 38 1008.0
20260505002938 26 311 4.8 8.0 0.00 0.00 0.00 40 1008.0
20260505002210 26 359 6.4 9.7 0.00 0.00 0.00 41 1008.0
20260505001710 26 316 6.4 9.7 0.00 0.00 0.00 41 1008.1
20260505001209 27 309 6.4 9.7 0.00 0.00 0.00 41 1008.2
20260505000715 26 309 6.4 11.3 0.00 0.00 0.00 42 1008.1
20260504235713 27 309 4.8 12.9 0.00 0.00 0.00 41 1008.2
20260504235210 27 316 4.8 11.3 0.00 0.00 0.00 38 1008.2
20260504234936 27 72 4.8 9.7 0.00 0.00 0.00 40 1008.2
20260504234210 27 334 4.8 8.0 0.00 0.00 0.00 36 1008.3
20260504233710 27 315 6.4 9.7 0.00 0.00 0.00 38 1008.3
20260504233434 27 314 6.4 11.3 0.00 0.00 0.00 39 1008.2
20260504232708 27 325 6.4 11.3 0.00 0.00 0.00 39 1008.3
20260504232435 27 319 6.4 9.7 0.00 0.00 0.00 40 1008.3
20260504231707 27 300 6.4 9.7 0.00 0.00 0.00 41 1008.3
20260504231205 27 326 4.8 8.0 0.00 0.00 0.00 42 1008.3
20260504230926 27 328 4.8 8.0 0.00 0.00 0.00 42 1008.4
20260504230432 26 320 3.2 8.0 0.00 0.00 0.00 42 1008.4
20260504225934 26 309 3.2 8.0 0.00 0.00 0.00 43 1008.6
20260504225202 25 273 4.8 8.0 0.00 0.00 0.00 43 1008.8
20260504224708 26 318 4.8 8.0 0.00 0.00 0.00 43 1008.9
20260504224431 26 342 3.2 8.0 0.00 0.00 0.00 45 1008.9
20260504223924 26 325 3.2 8.0 0.00 0.00 0.00 43 1008.9
20260504223155 25 309 4.8 11.3 0.00 0.00 0.00 43 1008.9
20260504222916 25 302 3.2 11.3 0.00 0.00 0.00 45 1008.9
20260504222153 25 308 3.2 9.7 0.00 0.00 0.00 45 1009.0
20260504221652 25 285 4.8 11.3 0.00 0.00 0.00 45 1009.0
20260504221141 23 273 4.8 12.9 0.00 0.00 0.00 44 1009.0
20260504220639 24 232 4.8 12.9 0.00 0.00 0.00 44 1008.9
20260504220139 24 274 4.8 9.7 0.00 0.00 0.00 41 1009.1
20260504215637 25 266 4.8 8.0 0.00 0.00 0.00 41 1009.1
20260504215138 25 241 4.8 8.0 0.00 0.00 0.00 43 1009.1
20260504214638 24 259 4.8 9.7 0.00 0.00 0.00 42 1009.1
20260504214138 24 169 4.8 12.9 0.00 0.00 0.00 44 1009.0
20260504213900 23 259 4.8 12.9 0.00 0.00 0.00 44 1009.1
20260504213134 24 274 4.8 8.0 0.00 0.00 0.00 42 1009.2
20260504212630 24 299 4.8 8.0 0.00 0.00 0.00 41 1009.3
20260504212129 23 285 4.8 8.0 0.00 0.00 0.00 47 1009.3
20260504211629 23 280 4.8 11.3 0.00 0.00 0.00 46 1009.3
20260504211129 23 285 6.4 12.9 0.00 0.00 0.00 43 1009.3
20260504210630 23 312 6.4 12.9 0.00 0.00 0.00 46 1009.5
20260504210129 23 265 4.8 12.9 0.00 0.00 0.00 46 1009.5
20260504205631 23 285 4.8 12.9 0.00 0.00 0.00 44 1009.4
20260504205130 23 230 4.8 11.3 0.00 0.00 0.00 44 1009.5
20260504204623 23 319 4.8 8.0 0.00 0.00 0.00 46 1009.5
20260504204116 23 312 4.8 8.0 0.00 0.00 0.00 47 1009.6
20260504203610 23 306 4.8 8.0 0.00 0.00 0.00 48 1009.5
20260504203105 23 321 4.8 8.0 0.00 0.00 0.00 48 1009.6
20260504202605 23 315 4.8 8.0 0.00 0.00 0.00 46 1009.5
20260504202335 24 311 4.8 8.0 0.00 0.00 0.00 45 1009.5
20260504201605 23 314 4.8 8.0 0.00 0.00 0.00 47 1009.6
20260504201103 23 330 4.8 8.0 0.00 0.00 0.00 45 1009.7
20260504200604 23 314 6.4 8.0 0.00 0.00 0.00 48 1009.7
20260504200104 23 322 4.8 8.0 0.00 0.00 0.00 47 1009.7
20260504195602 23 308 4.8 8.0 0.00 0.00 0.00 46 1009.7
20260504195103 22 278 3.2 8.0 0.00 0.00 0.00 48 1009.6
20260504194104 23 333 4.8 8.0 0.00 0.00 0.00 48 1009.5
20260504193604 23 320 4.8 6.4 0.00 0.00 0.00 52 1009.6
20260504193325 22 307 3.2 6.4 0.00 0.00 0.00 49 1009.5
20260504192829 23 321 3.2 8.0 0.00 0.00 0.00 51 1009.5
20260504192101 22 305 3.2 8.0 0.00 0.00 0.00 52 1009.5
20260504191601 22 320 3.2 6.4 0.00 0.00 0.00 51 1009.6
20260504191101 22 316 3.2 6.4 0.00 0.00 0.00 53 1009.6
20260504190827 22 312 3.2 6.4 0.00 0.00 0.00 52 1009.7
20260504190059 22 314 3.2 6.4 0.00 0.00 0.00 50 1009.7
20260504185553 22 326 3.2 6.4 0.00 0.00 0.00 53 1009.8
20260504185047 21 321 3.2 6.4 0.00 0.00 0.00 53 1009.8
20260504184547 21 319 3.2 6.4 0.00 0.00 0.00 57 1009.7
20260504184044 21 322 3.2 6.4 0.00 0.00 0.00 57 1009.7
20260504183543 20 319 3.2 6.4 0.00 0.00 0.00 55 1009.6
20260504183044 21 332 3.2 6.4 0.00 0.00 0.00 55 1009.7
20260504182541 21 333 3.2 6.4 0.00 0.00 0.00 57 1009.7
20260504182041 20 318 3.2 6.4 0.00 0.00 0.00 58 1009.8
20260504181539 20 317 3.2 6.4 0.00 0.00 0.00 58 1009.7
20260504181039 21 309 3.2 4.8 0.00 0.00 0.00 57 1009.6
20260504180539 20 308 3.2 4.8 0.00 0.00 0.00 58 1009.6
20260504180039 20 295 3.2 4.8 0.00 0.00 0.00 58 1009.7
20260504175808 20 302 3.2 6.4 0.00 0.00 0.00 61 1009.7
20260504175038 20 306 3.2 6.4 0.00 0.00 0.00 60 1009.7
20260504174535 20 13 3.2 6.4 0.00 0.00 0.00 59 1009.6
20260504174035 20 18 3.2 6.4 0.00 0.00 0.00 62 1009.6
20260504173535 20 15 3.2 6.4 0.00 0.00 0.00 63 1009.7
20260504173032 20 10 3.2 6.4 0.00 0.00 0.00 62 1009.7
20260504172531 19 20 3.2 8.0 0.00 0.00 0.00 63 1009.7
20260504172031 19 355 4.8 9.7 0.00 0.00 0.00 62 1009.7
20260504171031 20 60 3.2 9.7 0.00 0.00 0.00 63 1009.7
20260504170257 20 99 3.2 11.3 0.00 0.00 0.00 62 1009.6
20260504151008 16 13 3.2 4.8 0.00 0.00 0.00 76 1009.6
20260504150506 15 11 3.2 6.4 0.00 0.00 0.00 76 1009.5
20260504141232 15 91 3.2 9.7 0.00 0.00 0.00 73 1009.0
20260504140502 15 103 3.2 6.4 0.00 0.00 0.00 75 1009.0
20260504130501 15 153 1.6 6.4 0.00 0.00 0.00 76 1008.9
20260504110653 16 89 0.0 3.2 0.00 0.00 0.00 62 1008.8
20260504081905 22 241 4.8 11.3 0.00 0.00 0.00 37 1008.6
20260504081403 22 175 4.8 11.3 0.00 0.00 0.00 36 1008.6
20260504080911 22 234 4.8 9.7 0.00 0.00 0.00 37 1008.6
20260504080416 22 237 4.8 11.3 0.00 0.00 0.00 37 1008.7
20260504080137 21 186 3.2 11.3 0.00 0.00 0.00 37 1008.7